Location: Newark
(44.3248°N, 23.7839°E)
Time: 23:36:31
(UTC+00:00)

DUCHIFAT 1 - Visible Passes

Search period start: 18 April 2024 00:00
Search period end: 28 April 2024 00:00
Orbit: 543 x 559 km, 98.1° (Epoch: 18 April)

Date Brightness Start Highest point End Pass type
(mag) Time Alt. Az. Time Alt. Az. Time Alt. Az.
20 Apr ? 03:01:27 10° NNE 03:05:28 80° ESE 03:09:28 10° S visible
22 Apr ? 02:53:16 10° NNE 02:57:15 63° ESE 03:01:12 10° S visible
23 Apr ? 02:49:08 10° NNE 02:53:04 56° E 02:56:59 10° S visible
24 Apr ? 02:44:58 10° NNE 02:48:51 49° E 02:52:43 10° S visible
25 Apr ? 02:40:45 10° NNE 02:44:35 43° E 02:48:23 10° S visible
26 Apr ? 02:36:30 10° NNE 02:40:17 38° E 02:44:00 10° SSE visible
27 Apr ? 02:32:15 10° NNE 02:35:55 34° E 02:39:33 10° SSE visible
